Weather History for Veracruz Airport, Mexico

Change the Weather History Date:

Friday, March 22, 2013

  Actual Average Record
Temperature  
Mean Temperature 81 °F -  
Max Temperature 93 °F 86 °F 93 °F (2013)
Min Temperature 69 °F 69 °F 62 °F (1997)
Cooling Degree Days 16    
Growing Degree Days 31 (Base 50)    
Moisture  
Dew Point 69 °F    
Average Humidity 68    
Maximum Humidity 94    
Minimum Humidity 38    
Precipitation  
Precipitation 0.00 in - - ()
Sea Level Pressure  
Sea Level Pressure 29.67 in    
Wind  
Wind Speed 6 mph ()    
Max Wind Speed 15 mph    
Max Gust Speed -    
Visibility 5.7 miles    
Events      
Averages and records for this station are not official NWS values.
T = Trace of Precipitation, MM = Missing Value Source: Averaged Metar Reports

Daily Weather History Graph

Daily Weather History Graph

Search for Another Location

Airport:

Trip Planner

Search our weather history database for the weather conditions in past years. The results will help you decide how hot, cold, wet, or windy it might be!

Date:

Astronomy

Mar. 22, 2013 Rise Set
Actual Time 6:26 AM CST 6:36 PM CST
Civil Twilight 6:05 AM CST 6:58 PM CST
Nautical Twilight 5:39 AM CST 7:23 PM CST
Astronomical Twilight 5:14 AM CST 7:49 PM CST
Moon 2:36 PM CST (3/22) 2:53 AM CST (3/22)
Length of Visible Light 12h 53m
Length of Day
12h 09m
Waxing Gibbous, 78% of the Moon is Illuminated
Mar 22
Waxing Gibbous
Mar 27
Full
Apr 2
Last Quarter
Apr 10
New
Apr 18
First Quarter

Hourly Weather History & Observations

Time (CST) Temp. Heat Index Dew Point Humidity Pressure Visibility Wind Dir Wind Speed Gust Speed Precip Events Conditions
4:52 AM 71.6 °F - 68.0 °F 88% 29.68 in 6.0 mi West 3.5 mph - N/A   Clear
5:45 AM 69.8 °F - 68.0 °F 94% 29.68 in 6.0 mi South 2.3 mph - N/A   Partly Cloudy
6:43 AM 69.8 °F - 68.0 °F 94% 29.70 in 5.0 mi SW 2.3 mph - N/A   Scattered Clouds
7:44 AM 71.6 °F - 69.8 °F 94% 29.72 in 5.0 mi South 5.8 mph - N/A   Scattered Clouds
8:42 AM 77.0 °F - 71.6 °F 83% 29.71 in 6.0 mi SSW 8.1 mph - N/A   Mostly Cloudy
9:42 AM 80.6 °F 84.6 °F 71.6 °F 74% 29.72 in 5.0 mi SW 8.1 mph - N/A   Mostly Cloudy
10:44 AM 84.2 °F 89.6 °F 71.6 °F 66% 29.70 in 5.0 mi South 6.9 mph - N/A   Mostly Cloudy
11:43 AM 86.0 °F 91.8 °F 71.6 °F 62% 29.68 in 5.0 mi SSE 5.8 mph - N/A   Mostly Cloudy
12:42 PM 87.8 °F 92.6 °F 69.8 °F 55% 29.65 in 5.0 mi South 9.2 mph - N/A   Overcast
1:42 PM 89.6 °F 93.4 °F 68.0 °F 49% 29.63 in 5.0 mi South 15.0 mph - N/A   Mostly Cloudy
2:44 PM 89.6 °F 93.4 °F 68.0 °F 49% 29.60 in 5.0 mi SSW 9.2 mph - N/A   Mostly Cloudy
3:42 PM 93.2 °F 94.9 °F 64.4 °F 38% 29.58 in 5.0 mi SSE 15.0 mph - N/A   Mostly Cloudy
4:41 PM 87.8 °F 91.4 °F 68.0 °F 52% 29.61 in 5.0 mi East 13.8 mph - N/A   Partly Cloudy
5:42 PM 86.0 °F 88.2 °F 66.2 °F 51% 29.61 in 6.0 mi SE 6.9 mph - N/A   Scattered Clouds
6:44 PM 82.4 °F 85.4 °F 68.0 °F 62% 29.65 in 6.0 mi SSE 9.2 mph - N/A   Scattered Clouds
7:41 PM 78.8 °F - 68.0 °F 69% 29.67 in 7.0 mi SE 5.8 mph - N/A   Scattered Clouds
8:42 PM 78.8 °F - 69.8 °F 74% 29.65 in 7.0 mi South 9.2 mph - N/A   Clear
9:41 PM 77.0 °F - 68.0 °F 74% 29.69 in 7.0 mi SW 4.6 mph - N/A   Scattered Clouds
10:42 PM 77.0 °F - 66.2 °F 69% 29.71 in 7.0 mi WSW 6.9 mph - N/A   Clear